Date String (YYYY-MM-DD hh:mm:ss) UTC,Instrument flags,Ambient pressure (hPa),Sample flow (lpm),Bypass flow (lpm),Sample temperature (°C),Ambient temperature (°C),ASC tube jacket temperature (°C),LED temperature (°C),Box temperature (°C),Sample RH (%),Span deviation,Mass concentration (μg/m³),Mass concentration (μg/m³),Mass concentration (μg/m³)
DateTimeUTC,F1_M11,P_M11,Q1_M11,Q2_M11,T1_M11,T2_M11,T3_M11,T4_M11,T5_M11,U1_M11,ZSPAN_M11,X0_M11,X2_M11,X1_M11
2022-02-28 20:00:00,,0829.1,5.00,0.00,26.3,25.7,00.0,35.2,28.2,10.3,0000.0,0014.98,0007.27,0006.43
2022-02-28 20:01:00,,0828.9,4.99,0.00,26.3,25.7,00.0,35.2,28.2,11.1,0000.0,0015.20,0007.35,0006.48
2022-02-28 20:02:00,,0829.1,5.00,0.00,26.3,25.7,00.0,35.2,28.2,11.1,0000.0,0014.75,0007.41,0006.50
2022-02-28 20:03:00,,0829.3,5.01,0.00,26.4,25.8,00.0,35.2,28.2,10.4,0000.0,0014.73,0007.37,0006.48
2022-02-28 20:04:00,,0829.3,5.00,0.00,26.4,25.8,00.0,35.2,28.2,11.0,0000.0,0015.34,0007.31,0006.42
2022-02-28 20:05:00,,0829.3,5.01,0.00,26.4,25.8,00.0,35.2,28.2,11.1,0000.0,0015.23,0007.26,0006.37
2022-02-28 20:06:00,,0829.2,5.01,0.00,26.4,25.8,00.0,35.3,28.3,11.0,0000.0,0015.68,0007.23,0006.34
2022-02-28 20:07:00,,0829.2,5.01,0.00,26.4,25.8,00.0,35.3,28.3,11.3,0000.0,0015.93,0007.25,0006.34
2022-02-28 20:08:00,,0829.2,5.00,0.00,26.4,25.8,00.0,35.3,28.3,11.6,0000.0,0016.11,0007.26,0006.29
2022-02-28 20:09:00,,0829.2,4.99,0.00,26.4,25.8,00.0,35.3,28.3,10.6,0000.0,0016.30,0007.24,0006.23
2022-02-28 20:10:00,,0829.2,5.00,0.00,26.4,25.8,00.0,35.3,28.3,10.4,0000.0,0015.50,0007.23,0006.19
2022-02-28 20:11:00,,0828.9,5.00,0.00,26.5,25.9,00.0,35.3,28.4,09.9,0000.0,0015.55,0007.19,0006.14
2022-02-28 20:12:00,,0829.3,5.00,0.00,26.5,25.9,00.0,35.3,28.4,10.7,0000.0,0015.68,0007.12,0006.09
2022-02-28 20:13:00,,0829.2,5.00,0.00,26.5,25.9,00.0,35.4,28.4,10.2,0000.0,0015.60,0007.00,0006.03
2022-02-28 20:14:00,,0829.3,4.99,0.00,26.5,26.0,00.0,35.4,28.4,10.3,0000.0,0016.00,0006.97,0005.97
2022-02-28 20:15:00,,0829.2,5.00,0.00,26.6,26.0,00.0,35.4,28.4,10.6,0000.0,0015.23,0006.89,0005.91
2022-02-28 20:16:00,,0829.3,4.99,0.00,26.6,26.0,00.0,35.4,28.5,10.8,0000.0,0015.16,0006.87,0005.86
2022-02-28 20:17:00,,0829.2,5.00,0.00,26.6,26.1,00.0,35.4,28.5,10.3,0000.0,0014.57,0006.83,0005.83
2022-02-28 20:18:00,,0829.2,5.01,0.00,26.7,26.1,00.0,35.4,28.5,10.2,0000.0,0014.61,0006.81,0005.83
2022-02-28 20:19:00,,0828.8,5.00,0.00,26.7,26.2,00.0,35.5,28.6,10.4,0000.0,0014.44,0006.79,0005.85
2022-02-28 20:20:00,,0828.9,5.00,0.00,26.7,26.2,00.0,35.5,28.6,10.5,0000.0,0014.76,0006.76,0005.85
2022-02-28 20:21:00,,0828.8,5.00,0.00,26.7,26.2,00.0,35.5,28.6,10.3,0000.0,0015.19,0006.77,0005.87
2022-02-28 20:22:00,,0828.7,4.98,0.00,26.8,26.3,00.0,35.5,28.7,10.2,0000.0,0015.21,0006.76,0005.89
2022-02-28 20:23:00,,0828.9,5.01,0.00,26.8,26.3,00.0,35.6,28.7,10.0,0000.0,0015.58,0006.83,0005.90
2022-02-28 20:24:00,,0829.2,5.00,0.00,26.8,26.3,00.0,35.6,28.7,09.9,0000.0,0016.34,0006.93,0005.93
2022-02-28 20:25:00,,0828.9,5.00,0.00,26.9,26.4,00.0,35.6,28.8,10.2,0000.0,0016.01,0006.94,0005.94
2022-02-28 20:26:00,,0829.3,5.01,0.00,26.9,26.4,00.0,35.6,28.8,09.6,0000.0,0016.56,0006.95,0005.95
2022-02-28 20:27:00,,0829.3,5.00,0.00,26.9,26.4,00.0,35.7,28.9,10.0,0000.0,0017.51,0006.93,0005.97
2022-02-28 20:28:00,,0828.9,5.00,0.00,27.0,26.4,00.0,35.7,28.9,10.2,0000.0,0017.28,0006.94,0005.97
2022-02-28 20:29:00,,0828.8,4.99,0.00,27.0,26.5,00.0,35.7,28.9,10.9,0000.0,0017.15,0006.92,0005.94
2022-02-28 20:30:00,,0828.7,5.00,0.00,27.0,26.5,00.0,35.8,28.9,10.3,0000.0,0017.00,0006.93,0005.91
2022-02-28 20:31:00,,0828.7,5.00,0.00,27.0,26.5,00.0,35.8,28.9,10.8,0000.0,0016.11,0006.90,0005.89
2022-02-28 20:32:00,,0828.9,5.00,0.00,27.1,26.5,00.0,35.8,29.0,11.4,0000.0,0016.59,0006.82,0005.81
2022-02-28 20:33:00,,0828.7,5.01,0.00,27.1,26.5,00.0,35.8,29.0,11.8,0000.0,0016.87,0006.69,0005.71
2022-02-28 20:34:00,,0829.2,5.00,0.00,27.1,26.5,00.0,35.9,29.0,11.7,0000.0,0016.37,0006.55,0005.63
2022-02-28 20:35:00,,0829.3,4.99,0.00,27.1,26.5,00.0,35.9,29.0,11.7,0000.0,0015.59,0006.40,0005.54
2022-02-28 20:36:00,,0829.2,4.99,0.00,27.1,26.6,00.0,35.9,29.0,11.7,0000.0,0015.55,0006.34,0005.48
2022-02-28 20:37:00,,0829.4,4.99,0.00,27.1,26.6,00.0,35.9,29.1,11.3,0000.0,0015.18,0006.33,0005.43
2022-02-28 20:38:00,,0829.0,5.00,0.00,27.2,26.6,00.0,36.0,29.1,11.7,0000.0,0014.06,0006.28,0005.37
2022-02-28 20:39:00,,0829.3,5.01,0.00,27.2,26.6,00.0,36.0,29.1,11.7,0000.0,0013.94,0006.19,0005.30
2022-02-28 20:40:00,,0829.4,5.00,0.00,27.2,26.6,00.0,36.0,29.1,11.8,0000.0,0014.25,0006.12,0005.25
2022-02-28 20:41:00,,0829.3,5.00,0.00,27.2,26.6,00.0,36.0,29.2,11.9,0000.0,0014.25,0006.01,0005.20
2022-02-28 20:42:00,,0829.3,4.99,0.00,27.3,26.7,00.0,36.1,29.1,11.9,0000.0,0014.06,0006.00,0005.15
2022-02-28 20:43:00,,0829.3,4.99,0.00,27.3,26.7,00.0,36.1,29.2,11.6,0000.0,0013.84,0006.07,0005.18
2022-02-28 20:44:00,,0829.0,5.01,0.00,27.3,26.7,00.0,36.1,29.2,11.9,0000.0,0014.02,0006.17,0005.24
2022-02-28 20:45:00,,0828.9,5.02,0.00,27.3,26.7,00.0,36.1,29.2,11.3,0000.0,0014.16,0006.25,0005.29
2022-02-28 20:46:00,,0829.1,5.00,0.00,27.3,26.7,00.0,36.1,29.2,11.3,0000.0,0014.07,0006.31,0005.34
2022-02-28 20:47:00,,0829.2,4.99,0.00,27.3,26.7,00.0,36.1,29.2,11.5,0000.0,0014.08,0006.32,0005.37
2022-02-28 20:48:00,,0829.2,4.99,0.00,27.4,26.7,00.0,36.2,29.2,11.5,0000.0,0015.01,0006.31,0005.40
2022-02-28 20:49:00,,0829.3,5.00,0.00,27.4,26.7,00.0,36.2,29.2,11.3,0000.0,0015.94,0006.32,0005.41
2022-02-28 20:50:00,,0829.3,4.99,0.00,27.4,26.7,00.0,36.2,29.3,11.3,0000.0,0016.76,0006.43,0005.46
2022-02-28 20:51:00,,0829.3,5.00,0.00,27.4,26.7,00.0,36.2,29.3,11.1,0000.0,0017.18,0006.48,0005.51
2022-02-28 20:52:00,,0829.0,5.00,0.00,27.4,26.7,00.0,36.2,29.3,10.8,0000.0,0017.70,0006.53,0005.58
2022-02-28 20:53:00,,0828.8,5.00,0.00,27.4,26.8,00.0,36.2,29.3,10.8,0000.0,0019.04,0006.53,0005.61
2022-02-28 20:54:00,,0828.9,5.00,0.00,27.4,26.8,00.0,36.3,29.3,11.0,0000.0,0018.78,0006.48,0005.61
2022-02-28 20:55:00,,0828.9,5.00,0.00,27.4,26.8,00.0,36.3,29.3,11.1,0000.0,0019.07,0006.46,0005.63
2022-02-28 20:56:00,,0828.9,5.01,0.00,27.5,26.8,00.0,36.3,29.3,11.3,0000.0,0019.17,0006.43,0005.64
2022-02-28 20:57:00,,0828.9,5.00,0.00,27.5,26.9,00.0,36.3,29.4,11.2,0000.0,0019.16,0006.43,0005.65
2022-02-28 20:58:00,,0829.0,4.99,0.00,27.5,26.9,00.0,36.3,29.4,11.4,0000.0,0019.04,0006.44,0005.66
2022-02-28 20:59:00,,0828.9,4.99,0.00,27.5,26.9,00.0,36.4,29.4,11.1,0000.0,0018.01,0006.47,0005.69
